DECAYED

STARLINK-6078, 56106 (Decayed)

Orbit data source: Space-Track

STARLINK-6078, 56106 was a payload satellite owned by SpaceX/Seattle (US) in LEO that was launched on Wed, 29 Mar 2023 UTC via an FALCON 9 launch vehicle from the Air Force Eastern Test Range (AFETR). Payload-class satellites include a variety of spacecraft equipped with specific instruments for various scientific and technological missions. These include communications satellites like Starlink; space stations such as the ISS; scientific satellites like the Hubble; Earth observation satellites from companies like Planet Labs, Umbra, and HawkEye 360; GPS; miniature CubeSats for education and research; and military/defense satellites.

Not visible in the next 10 days
Identifier
56106, 2023-046P
Orbit
Decayed
Country
Flag of USUS
Related business
Manufacturer
SpaceX/Seattle
Mission
Decayed Commercial Communications
Bus & Motor
STARLINK, Unknown motor
Mass
305 kg wet, ~290 kg dry
Launch date (UTC)
2023-03-29 (3 years ago)
Launch vehicle
FALCON 9
Launch site
Air Force Eastern Test Range (AFETR)
Object type
Payload
Rocket body
Debris
Shape & HBR
Box + 1 Pan, 10.1 m
Radar Cross Section
11.087 m², Large (>1 m²)

Expand to show TLE details & history
Last TLE update: 1 year ago

TLE from 1 year ago
0 STARLINK-6078
1 56106U 23046P   25017.63295113  .10704860  94182-5  39864-3 0  9996
2 56106  42.9873 228.3469 0004166 290.4043 127.6329 16.44230702100376
Epoch: 2025-01-17T15:11Z
TLE epoch observation values (Epoch: 2025-01-17T15:11:26.977Z)
Latitude
35.50028°
Longitude
-67.27012°
Altitude
157.721 km
Speed
7.816 km/s
True Right ascension
18h 31m 32s
True Declination
35° 19' 23"
Sunlit
Object was in daylight at epoch
Visualization orbit readout
Latitude
Unknown
Longitude
Unknown
Altitude
Unknown
Speed
Unknown
Apparent Right ascension
Unknown
Apparent Declination
Unknown
Sunlit
N/A
Visualization observer readout
Local Sidereal Time
21:31:48
Azimuth
Unknown
Elevation
Unknown
Doppler factor
Unknown
Orbital elements
Apogee altitude
159.34 km
Perigee altitude
153.895 km
Semi-major axis
6,534.754 km
Eccentricity
0.00042
Inclination
42.9873°
RAAN
228.3469°
Arg. of periapsis
290.4043°
True anomaly
127.67069°
Mean anomaly
127.6329°
Eccentric anomaly
127.6518°
Mean motion
4.10865 °/min
Orbital period
87.62 mins
BSTAR
0.00039864
Loading maneuver chart data...
Computing Atmospheric mass density...
Loading historical data...
Loading historical data...
Loading historical data...
Loading historical data...
Loading historical data...
Loading historical data...
Loading historical data...

Documentation

Showing up to 5 results
|